TimeEST,TemperatureF,Dew PointF,Humidity,Sea Level PressureIn,VisibilityMPH,Wind Direction,Wind SpeedMPH,Gust SpeedMPH,PrecipitationIn,Events,Conditions,WindDirDegrees,DateUTC
12:15 AM,32.0,23.5,71,30.35,10.0,East,5.8,-,N/A,,Clear,100,2013-03-09 05:15:00
12:35 AM,32.0,23.7,71,30.34,10.0,East,5.8,-,N/A,,Clear,100,2013-03-09 05:35:00
12:55 AM,32.0,23.9,72,30.34,10.0,ESE,4.6,-,N/A,,Clear,110,2013-03-09 05:55:00
1:15 AM,32.0,23.9,72,30.33,10.0,ESE,5.8,-,N/A,,Clear,120,2013-03-09 06:15:00
1:35 AM,32.0,24.1,73,30.33,10.0,ESE,4.6,-,N/A,,Clear,120,2013-03-09 06:35:00
1:55 AM,32.0,24.1,73,30.33,10.0,SE,4.6,-,N/A,,Clear,140,2013-03-09 06:55:00
2:15 AM,32.0,24.3,73,30.32,10.0,East,5.8,-,N/A,,Clear,100,2013-03-09 07:15:00
2:35 AM,32.0,24.3,73,30.31,10.0,East,6.9,-,N/A,,Clear,100,2013-03-09 07:35:00
2:55 AM,32.0,24.4,74,30.31,10.0,ESE,6.9,-,N/A,,Clear,110,2013-03-09 07:55:00
3:15 AM,32.2,24.4,73,30.31,10.0,SE,6.9,-,N/A,,Clear,130,2013-03-09 08:15:00
3:35 AM,32.5,24.6,73,30.30,10.0,ESE,5.8,-,N/A,,Clear,120,2013-03-09 08:35:00
3:55 AM,32.4,24.4,73,30.28,10.0,ESE,5.8,-,N/A,,Clear,120,2013-03-09 08:55:00
4:15 AM,32.9,24.8,72,30.28,10.0,SE,6.9,-,N/A,,Clear,130,2013-03-09 09:15:00
4:35 AM,33.1,24.8,72,30.27,10.0,ESE,6.9,-,N/A,,Clear,120,2013-03-09 09:35:00
4:55 AM,33.3,25.5,73,30.26,10.0,ESE,9.2,-,N/A,,Clear,110,2013-03-09 09:55:00
5:15 AM,33.3,25.7,74,30.26,10.0,SE,9.2,-,N/A,,Clear,130,2013-03-09 10:15:00
5:35 AM,33.8,26.1,73,30.26,10.0,SE,8.1,-,N/A,,Scattered Clouds,130,2013-03-09 10:35:00
5:55 AM,33.8,26.1,73,30.26,10.0,ESE,8.1,-,N/A,,Mostly Cloudy,120,2013-03-09 10:55:00
6:15 AM,34.0,26.4,74,30.26,10.0,ESE,8.1,-,N/A,,Mostly Cloudy,120,2013-03-09 11:15:00
6:35 AM,34.2,26.4,73,30.26,10.0,SE,5.8,-,N/A,,Mostly Cloudy,130,2013-03-09 11:35:00
6:55 AM,34.0,26.6,74,30.27,10.0,SSE,5.8,-,N/A,,Scattered Clouds,150,2013-03-09 11:55:00
7:15 AM,34.3,26.6,73,30.26,10.0,SE,8.1,-,N/A,,Scattered Clouds,140,2013-03-09 12:15:00
7:35 AM,34.7,26.6,72,30.26,10.0,SE,6.9,-,N/A,,Scattered Clouds,140,2013-03-09 12:35:00
7:55 AM,34.9,26.6,72,30.27,10.0,SSE,6.9,-,N/A,,Clear,150,2013-03-09 12:55:00
8:15 AM,35.1,26.6,71,30.27,10.0,SSE,9.2,-,N/A,,Clear,150,2013-03-09 13:15:00
8:35 AM,35.6,26.6,70,30.26,10.0,SE,10.4,-,N/A,,Clear,140,2013-03-09 13:35:00
8:55 AM,36.3,26.6,68,30.26,10.0,SE,11.5,-,N/A,,Clear,140,2013-03-09 13:55:00
9:15 AM,37.4,26.8,66,30.26,10.0,SSE,10.4,-,N/A,,Clear,150,2013-03-09 14:15:00
9:35 AM,38.7,27.0,63,30.25,10.0,SE,12.7,-,N/A,,Clear,140,2013-03-09 14:35:00
9:55 AM,39.4,27.1,62,30.25,10.0,SSE,11.5,-,N/A,,Clear,150,2013-03-09 14:55:00
10:15 AM,41.2,27.5,58,30.25,10.0,SSE,10.4,16.1,N/A,,Scattered Clouds,150,2013-03-09 15:15:00
10:35 AM,41.9,28.0,58,30.25,10.0,SSE,9.2,-,N/A,,Mostly Cloudy,150,2013-03-09 15:35:00
10:55 AM,43.5,28.6,56,30.24,10.0,SE,12.7,18.4,N/A,,Mostly Cloudy,140,2013-03-09 15:55:00
11:15 AM,44.8,29.3,55,30.23,10.0,SSE,10.4,-,N/A,,Scattered Clouds,150,2013-03-09 16:15:00
11:35 AM,44.6,28.6,53,30.22,10.0,SSE,10.4,-,N/A,,Clear,160,2013-03-09 16:35:00
11:55 AM,45.5,29.1,53,30.22,10.0,SE,10.4,-,N/A,,Clear,130,2013-03-09 16:55:00
12:15 PM,46.4,29.7,52,30.20,10.0,SSE,12.7,-,N/A,,Clear,150,2013-03-09 17:15:00
12:35 PM,46.4,30.4,54,30.19,10.0,SSE,11.5,-,N/A,,Clear,150,2013-03-09 17:35:00
12:55 PM,47.1,30.4,52,30.17,10.0,SE,13.8,-,N/A,,Clear,130,2013-03-09 17:55:00
1:15 PM,47.8,31.1,52,30.16,10.0,SSE,9.2,-,N/A,,Clear,150,2013-03-09 18:15:00
1:35 PM,48.0,31.3,52,30.15,10.0,SSE,11.5,16.1,N/A,,Clear,150,2013-03-09 18:35:00
1:55 PM,48.2,31.6,53,30.14,10.0,SSE,9.2,-,N/A,,Clear,150,2013-03-09 18:55:00
2:15 PM,49.3,32.5,53,30.14,10.0,South,10.4,-,N/A,,Clear,170,2013-03-09 19:15:00
2:35 PM,48.9,31.3,51,30.12,10.0,SSE,12.7,-,N/A,,Mostly Cloudy,150,2013-03-09 19:35:00
2:55 PM,49.1,31.6,51,30.11,10.0,SSE,10.4,-,N/A,,Overcast,160,2013-03-09 19:55:00
3:15 PM,49.1,32.0,52,30.10,10.0,SSE,12.7,-,N/A,,Overcast,150,2013-03-09 20:15:00
3:35 PM,49.1,32.4,53,30.08,10.0,SE,11.5,-,N/A,,Mostly Cloudy,140,2013-03-09 20:35:00
3:55 PM,50.0,32.5,51,30.08,10.0,SE,10.4,-,N/A,,Overcast,140,2013-03-09 20:55:00
4:15 PM,50.0,32.4,51,30.07,10.0,SSE,10.4,-,N/A,,Overcast,150,2013-03-09 21:15:00
4:35 PM,50.2,32.4,50,30.06,10.0,SE,9.2,-,N/A,,Overcast,140,2013-03-09 21:35:00
4:55 PM,50.5,32.7,51,30.05,10.0,SE,9.2,-,N/A,,Overcast,140,2013-03-09 21:55:00
5:15 PM,50.9,31.5,47,30.06,10.0,SSE,12.7,-,N/A,,Overcast,150,2013-03-09 22:15:00
5:35 PM,50.5,31.6,48,30.05,10.0,SE,11.5,18.4,N/A,,Overcast,140,2013-03-09 22:35:00
5:55 PM,50.4,31.8,49,30.04,10.0,SE,11.5,-,N/A,,Overcast,140,2013-03-09 22:55:00
6:15 PM,51.1,32.0,48,30.04,10.0,SSE,11.5,-,N/A,,Mostly Cloudy,150,2013-03-09 23:15:00
6:35 PM,50.2,32.0,50,30.03,10.0,SSE,11.5,-,N/A,,Scattered Clouds,150,2013-03-09 23:35:00
6:55 PM,49.6,31.8,50,30.03,10.0,SSE,13.8,-,N/A,,Clear,150,2013-03-09 23:55:00
7:15 PM,49.6,31.5,50,30.03,10.0,SSE,11.5,-,N/A,,Scattered Clouds,150,2013-03-10 00:15:00
7:35 PM,49.3,31.6,51,30.03,10.0,SSE,10.4,-,N/A,,Scattered Clouds,150,2013-03-10 00:35:00
7:55 PM,48.7,32.0,52,30.02,10.0,SSE,9.2,-,N/A,,Mostly Cloudy,150,2013-03-10 00:55:00
8:15 PM,50.2,31.8,49,30.01,10.0,SE,10.4,-,N/A,,Scattered Clouds,140,2013-03-10 01:15:00
8:35 PM,49.6,32.0,51,30.00,10.0,SSE,13.8,-,N/A,,Scattered Clouds,150,2013-03-10 01:35:00
8:55 PM,49.8,32.0,50,29.99,10.0,SSE,12.7,-,N/A,,Scattered Clouds,150,2013-03-10 01:55:00
9:15 PM,49.1,32.0,52,29.99,10.0,SSE,10.4,-,N/A,,Clear,160,2013-03-10 02:15:00
9:55 PM,49.1,31.8,51,29.98,10.0,SSE,12.7,16.1,N/A,,Clear,160,2013-03-10 02:55:00
10:15 PM,50.4,31.5,48,29.97,10.0,SSE,12.7,-,N/A,,Scattered Clouds,160,2013-03-10 03:15:00
10:35 PM,51.3,31.1,46,29.97,10.0,SSE,13.8,20.7,N/A,,Mostly Cloudy,160,2013-03-10 03:35:00
10:55 PM,51.3,31.1,46,29.96,10.0,South,15.0,18.4,N/A,,Scattered Clouds,170,2013-03-10 03:55:00
11:15 PM,51.4,30.9,45,29.96,10.0,South,12.7,19.6,N/A,,Scattered Clouds,170,2013-03-10 04:15:00
11:35 PM,51.1,31.1,46,29.96,10.0,South,13.8,-,N/A,,Clear,170,2013-03-10 04:35:00
11:55 PM,50.7,31.5,48,29.95,10.0,South,15.0,-,N/A,,Clear,180,2013-03-10 04:55:00